RH
30 28 26 25 24 22 21 21 21 20 20 19 19 19 20 21 23 26 26 26 26 27 29 33 43 57 70 79 89 96 99 102 101 101 103 101 100 98 98 102 105 105 105 103 98 98 99 99 97 92 91 85
39 37 35 34 32 29 27 25 24 23 22 21 20 19 19 19 20 22 24 24 24 23 24 24 24 29 37 44 54 67 79 91 97 100 103 102 100 98 98 103 107 107 106 102 99 97 96 96 91 85 86 89
45 45 43 42 39 37 35 33 30 28 27 25 24 23 21 21 20 20 21 22 22 22 23 23 22 21 22 24 26 33 42 56 70 84 96 101 102 100 97 102 105 105 106 101 99 98 96 95 91 85 84 85
48 48 47 46 45 44 42 40 38 35 33 31 29 28 26 25 23 22 22 22 21 20 21 22 22 21 20 19 18 19 20 25 35 47 64 80 90 94 94 100 104 106 108 95 91 100 99 97 96 92 88 83
49 48 47 47 47 46 46 45 44 42 40 38 35 33 31 29 28 27 25 24 23 21 21 21 21 21 21 20 18 17 16 16 18 23 31 43 56 66 74 84 96 106 106 83 71 85 92 90 89 86 83 78
48 47 47 46 46 45 45 45 45 45 44 43 41 39 37 35 33 31 30 28 27 25 23 23 22 21 21 21 21 19 18 17 16 16 17 21 27 35 44 55 71 84 88 73 56 60 69 69 67 67 68 69
42 43 44 44 44 44 44 44 43 43 43 43 43 42 42 40 39 37 35 33 31 30 27 26 25 24 22 21 22 21 20 20 19 18 16 16 17 19 23 31 41 48 56 58 46 42 47 49 46 47 51 57
24 26 28 31 33 35 37 39 40 40 41 41 41 41 42 41 41 41 40 39 37 35 33 30 29 28 26 24 23 23 22 22 21 20 19 18 17 16 17 20 23 24 31 38 36 30 31 35 37 38 41 46
15 14 14 14 15 17 20 22 26 28 31 33 35 37 38 39 40 40 40 40 40 39 38 36 35 33 31 29 27 26 25 24 23 22 21 20 20 19 19 19 18 18 21 25 28 25 24 27 31 34 34 36
28 26 23 19 16 14 12 12 12 13 15 17 20 23 26 29 32 35 37 38 39 39 40 39 39 38 37 34 32 31 30 29 27 25 24 22 21 21 21 21 20 18 19 20 22 23 22 22 27 31 32 31
41 41 40 37 34 30 26 22 18 16 14 12 11 11 12 14 17 20 24 28 32 35 37 38 38 39 39 38 37 35 34 33 32 30 29 27 25 24 23 23 22 21 21 20 20 21 21 20 23 28 30 31
45 47 48 49 48 47 44 40 36 31 28 25 22 18 15 13 12 11 12 14 17 21 25 29 33 35 37 38 38 38 37 37 36 35 33 32 30 29 28 26 25 23 22 22 22 21 21 20 20 22 24 26
35 38 42 45 48 50 52 52 50 46 42 40 37 34 30 25 22 19 15 13 11 11 12 15 18 22 26 31 33 35 36 38 38 38 37 36 35 34 34 32 30 28 26 24 23 23 22 22 22 22 21 22
27 28 29 32 35 38 42 47 50 51 50 48 46 44 41 38 36 33 30 26 21 17 15 12 11 11 13 16 20 24 28 32 35 38 39 38 38 38 38 37 36 34 32 30 28 26 25 24 24 24 23 23
24 24 25 25 26 27 28 31 34 39 42 44 46 45 45 44 42 41 40 39 36 32 28 24 19 16 14 11 10 11 14 18 22 28 33 36 37 38 40 39 39 38 38 37 35 33 31 29 27 27 26 25
16 17 19 20 22 23 23 24 25 26 28 31 34 36 39 40 41 41 41 42 42 41 39 38 35 31 28 24 19 15 11 10 10 13 17 23 28 32 36 39 40 40 40 40 40 39 38 36 34 32 30 29
13 12 13 13 14 16 17 19 20 22 23 24 25 26 28 30 32 34 36 38 40 42 42 42 43 42 40 38 36 32 24 17 13 10 9 10 14 19 24 30 34 38 40 41 41 42 41 40 39 38 36 34
15 13 13 12 12 12 12 12 13 15 17 19 21 22 23 24 24 25 27 29 32 36 38 40 42 44 46 45 45 44 39 34 28 22 17 13 10 9 11 15 21 26 32 37 39 41 42 42 42 41 40 39
17 15 14 13 12 12 11 12 11 11 11 11 13 15 17 20 21 22 23 23 24 26 29 33 36 39 44 46 47 47 45 44 41 36 32 28 23 17 12 9 9 12 17 22 28 33 38 41 42 42 42 41
18 18 17 15 14 13 11 11 11 11 11 10 10 9 10 11 14 16 19 21 22 22 22 24 26 29 34 40 44 47 48 46 44 42 40 39 37 33 28 21 15 11 9 10 14 18 24 30 35 39 41 42
19 18 18 17 15 13 12 11 10 10 10 10 10 10 9 9 9 9 11 14 16 20 21 21 22 23 24 28 33 38 45 47 46 44 42 41 41 41 41 38 32 25 18 13 9 9 11 15 20 26 32 37
18 18 17 16 15 14 13 12 11 10 10 9 9 9 9 9 9 9 9 9 9 12 15 18 20 21 22 23 24 26 32 38 44 47 45 42 41 41 43 45 45 42 38 30 21 14 10 8 9 12 17 21
16 16 15 15 15 14 14 13 12 11 10 10 10 10 10 10 9 9 9 9 8 8 9 11 14 17 19 21 23 24 24 27 33 39 45 46 44 41 40 42 47 49 49 46 40 31 22 15 11 8 8 10
13 13 13 13 13 13 13 13 13 13 12 11 10 10 10 10 10 9 9 8 8 8 8 9 9 11 13 16 19 22 24 26 27 30 36 43 48 46 40 37 42 49 52 51 49 46 40 32 24 18 12 8
10 10 9 9 10 10 11 11 12 12 12 12 11 11 10 10 10 9 9 9 8 8 8 8 9 9 10 11 13 16 20 23 27 29 30 36 44 49 47 40 36 42 51 55 52 48 47 45 41 36 29 20
8 8 7 7 7 7 8 8 9 10 10 11 12 12 12 11 11 10 10 9 9 9 8 8 8 8 9 10 10 12 14 17 21 25 29 33 38 45 50 50 43 40 44 51 53 51 50 50 49 46 42 36
6 6 6 6 6 6 6 6 7 7 8 9 10 11 11 12 12 11 11 11 10 10 10 10 9 8 8 9 9 10 11 13 15 17 22 27 33 38 44 50 51 47 44 46 50 54 55 51 49 47 45 45
5 5 6 6 5 5 5 5 5 5 6 6 7 8 9 10 11 11 11 11 11 11 11 11 11 10 9 8 9 9 10 11 13 14 15 18 23 29 35 42 48 51 53 54 53 55 57 53 49 47 47 52
6 6 6 5 5 5 5 5 4 4 4 5 5 6 7 8 8 9 10 11 11 10 11 12 12 12 11 9 9 9 10 10 11 13 13 14 16 19 25 31 39 47 55 61 62 59 59 58 55 52 55 61
5 5 5 5 4 4 4 4 4 4 4 4 4 5 5 6 6 7 8 9 10 10 10 11 12 13 13 12 11 10 10 10 11 11 12 14 14 15 17 20 27 36 45 55 62 63 62 62 60 60 62 62
4 4 3 3 3 3 3 3 3 3 3 4 4 4 4 4 5 5 6 7 8 9 9 9 10 12 13 13 12 11 11 11 11 11 11 12 13 14 15 15 18 23 31 43 54 57 61 65 66 65 66 67
Wind_Speed
104 104 104 104 104 104 103 103 103 103 102 102 102 101 101 101 101 101 102 103 102 102 101 101 100 101 101 100 100 99 99 98 98 98 97 97 97 97 96 96 97 98 99 98 96 96 96 96 95 94 93 94
106 106 106 106 107 106 106 106 106 106 106 105 105 104 103 102 102 102 103 104 103 103 103 103 103 102 103 102 102 102 101 101 101 101 101 101 100 100 99 98 99 101 102 100 99 99 99 99 98 97 96 96
109 109 109 109 109 109 109 109 109 109 108 108 107 107 106 105 105 104 104 105 105 104 104 105 105 105 105 104 104 103 103 103 103 103 103 104 104 103 103 102 103 104 105 104 102 103 102 102 101 100 99 99
111 111 111 111 111 112 112 112 111 111 111 111 110 110 109 109 108 107 107 107 107 106 105 106 106 106 106 106 106 105 105 104 105 105 105 106 106 106 105 105 105 107 109 107 104 105 105 104 104 103 102 101
112 113 113 114 114 114 114 114 114 114 114 113 113 113 112 111 111 111 110 110 110 109 108 107 107 107 107 107 107 107 106 106 106 107 107 107 107 107 107 107 107 108 110 108 105 106 106 106 105 105 104 103
115 115 115 115 116 116 116 116 117 116 116 116 116 116 115 114 114 114 114 113 113 112 111 110 110 109 109 108 108 108 108 108 108 108 108 108 108 108 108 108 109 110 111 110 107 106 107 107 106 105 105 104
118 118 118 118 118 119 119 119 119 119 119 119 119 118 118 117 117 117 116 116 116 115 115 113 113 113 112 111 110 110 110 110 110 110 110 109 109 108 108 109 110 111 111 112 110 108 107 107 106 105 104 105
116 117 118 119 120 121 121 121 122 122 122 122 121 121 120 120 119 119 119 119 118 118 117 117 116 116 116 115 113 113 112 112 112 112 112 111 110 109 109 111 111 111 112 113 112 110 108 108 107 106 106 106
108 111 112 114 115 117 119 120 121 122 123 124 124 123 123 123 122 122 121 121 121 120 120 119 119 119 118 118 117 116 115 115 114 114 114 113 112 111 111 112 112 112 112 113 113 112 110 109 108 108 108 108
103 104 105 107 108 109 111 112 114 116 118 120 122 123 124 125 125 124 124 124 123 123 122 122 121 121 121 121 120 120 119 118 118 117 116 115 114 113 113 114 114 113 114 114 114 113 112 110 109 110 110 110
103 103 104 105 105 106 106 107 108 109 110 112 114 116 118 120 122 123 125 125 125 125 125 125 124 124 124 123 123 122 122 121 121 120 119 118 117 116 116 116 115 115 116 116 115 115 114 112 111 111 112 112
108 108 107 107 107 107 107 107 107 107 107 108 109 110 111 112 114 116 118 120 122 123 125 126 126 126 126 126 126 125 124 124 124 123 123 121 120 119 119 119 118 118 118 118 117 116 116 114 113 113 114 114
113 113 113 112 112 111 111 110 110 109 109 108 108 108 108 108 109 110 111 112 114 116 119 121 123 126 127 127 128 128 127 126 126 126 126 125 123 123 122 122 121 121 121 120 120 119 117 116 115 115 115 115
117 117 117 117 117 116 116 115 115 114 113 112 111 111 110 109 109 109 108 108 109 109 110 113 115 118 121 123 126 127 128 128 128 128 128 128 126 126 125 125 125 124 124 123 122 121 120 119 118 117 117 117
120 120 120 121 121 120 120 120 119 119 118 117 116 115 114 113 113 112 111 110 109 108 107 108 109 110 112 115 117 121 123 126 127 128 129 130 129 128 128 128 127 127 126 125 125 124 123 122 121 121 120 120
121 121 122 122 123 123 123 123 123 122 122 121 121 120 119 118 117 116 115 113 112 111 109 108 108 107 107 108 109 112 115 118 121 124 126 128 130 130 130 130 129 129 128 128 127 127 127 126 125 124 124 123
120 121 121 122 123 124 124 125 125 125 125 125 124 124 123 123 122 121 120 118 117 116 114 112 110 110 109 108 107 109 110 111 113 116 118 120 124 127 129 130 131 131 131 131 130 130 130 130 128 127 127 126
120 121 121 122 122 123 124 124 125 126 126 127 127 126 126 126 126 125 124 123 121 120 119 117 115 113 112 111 110 111 111 110 110 110 110 112 115 119 122 126 129 131 132 133 133 133 133 132 132 131 130 129
121 121 122 122 123 123 123 124 124 125 125 126 127 127 128 128 128 128 128 127 126 124 123 122 120 118 117 115 115 114 113 112 112 111 109 109 109 111 114 117 120 124 128 130 132 133 134 134 134 133 133 132
121 122 122 123 124 124 124 124 124 125 125 125 126 126 127 128 129 130 130 129 129 128 127 126 124 123 121 120 119 118 117 116 116 114 113 111 109 108 108 110 112 115 119 123 127 130 132 134 134 134 134 134
122 122 123 124 124 125 125 124 124 125 125 126 126 126 126 127 128 129 130 131 131 131 131 130 129 127 126 125 123 122 120 120 119 118 117 115 113 111 109 108 108 109 111 114 118 122 125 129 131 133 134 135
123 123 124 124 125 126 126 125 125 125 125 126 126 127 127 127 128 129 129 130 131 131 131 132 132 131 130 129 128 126 124 123 122 122 121 119 117 115 113 111 109 108 108 109 111 114 117 121 124 127 130 133
123 124 125 125 126 126 127 127 126 126 126 126 126 127 127 128 128 129 129 129 130 130 131 132 132 133 132 131 131 130 128 127 126 125 124 123 122 120 118 115 112 111 111 110 110 111 112 114 116 119 123 125
123 124 124 124 125 126 126 127 127 127 127 127 126 126 127 128 128 129 129 129 129 130 130 130 131 132 133 133 132 132 131 130 130 129 127 126 125 125 123 120 117 115 115 114 113 112 112 111 112 113 115 118
119 120 120 121 122 123 124 125 126 127 127 127 127 127 127 127 128 128 128 128 128 129 129 129 130 131 132 132 133 132 132 133 132 132 131 129 128 128 127 125 122 119 118 118 117 115 114 112 112 111 112 112
114 115 115 116 116 117 118 120 121 122 124 125 126 127 128 128 128 129 128 128 128 129 129 129 129 129 130 131 132 132 133 133 134 134 133 133 132 131 130 128 126 124 123 121 120 118 117 117 116 114 112 111
108 108 109 110 110 111 112 113 114 115 116 118 121 123 126 128 128 128 129 128 128 129 129 129 129 129 129 130 130 131 132 133 134 135 135 135 135 134 133 131 130 129 127 125 123 123 122 121 120 117 115 111
104 104 105 106 106 106 107 107 108 108 109 110 113 116 119 123 125 126 128 128 128 128 129 130 130 129 129 129 129 130 131 132 133 135 136 136 136 137 136 135 134 132 131 129 128 127 126 125 123 120 116 113
103 104 105 105 104 103 103 103 103 103 103 104 106 109 112 116 118 120 123 126 127 127 128 129 130 130 130 129 128 129 130 131 132 133 135 136 137 138 138 137 136 135 134 133 132 131 130 128 126 123 119 117
101 102 102 102 101 101 101 101 100 100 99 100 101 103 106 109 112 114 116 119 123 125 126 127 128 130 131 131 130 129 129 130 131 132 134 135 137 138 138 139 139 138 137 136 136 135 133 131 129 126 124 123
97 97 97 97 96 96 97 98 98 98 98 98 99 99 100 102 105 108 110 112 116 121 123 124 125 127 130 131 131 130 129 129 130 131 133 134 136 137 138 139 139 139 139 139 138 138 136 134 132 130 128 127
Wind_Direction
255 255 255 254 254 254 254 254 254 253 253 253 253 252 252 252 252 252 252 252 252 252 252 252 251 251 250 250 250 249 249 248 247 247 247 247 247 246 246 245 246 246 246 247 247 248 248 248 248 248 248 248
255 255 255 254 254 254 253 253 253 253 253 253 253 252 252 251 251 251 251 251 251 251 251 251 251 250 250 250 250 249 249 248 247 247 247 247 247 247 246 245 246 246 246 247 247 248 248 249 249 249 248 247
255 255 255 254 254 254 254 253 253 253 253 252 252 252 252 252 251 250 250 251 251 250 250 250 250 250 250 250 249 249 249 248 248 247 247 247 247 247 246 246 246 247 247 247 247 248 248 249 249 249 248 247
255 255 255 255 254 254 254 254 253 253 253 252 252 252 252 251 251 251 250 250 250 250 250 249 249 249 249 249 249 249 248 248 248 247 247 246 246 246 246 246 246 247 248 247 247 247 248 248 248 248 247 247
254 254 254 254 254 254 254 254 254 254 253 253 252 252 251 251 251 251 250 250 250 250 250 249 249 249 248 249 249 249 248 248 248 247 247 246 246 246 246 246 246 247 248 248 247 247 247 247 247 247 247 247
254 254 254 254 254 254 254 254 254 254 254 253 253 253 252 252 251 251 250 250 250 250 249 249 249 249 248 248 248 248 248 248 248 247 247 247 246 246 246 246 246 247 247 248 247 246 247 247 247 247 247 247
255 255 254 254 254 254 254 254 254 254 253 253 253 253 253 252 252 251 251 250 250 250 250 249 249 249 249 248 248 248 248 247 247 247 247 247 246 246 246 246 246 246 247 248 247 247 247 247 247 247 247 246
256 256 255 255 254 254 254 254 254 254 253 253 253 253 252 252 252 252 251 251 251 250 250 250 249 249 249 248 248 248 248 247 247 247 247 247 247 246 246 246 246 246 247 247 247 247 247 247 247 247 246 246
256 257 256 255 255 254 254 254 254 254 253 253 253 252 252 252 252 251 251 251 251 251 250 250 250 249 249 249 248 248 248 247 247 247 247 247 247 247 246 246 246 246 246 247 247 247 247 247 247 247 247 246
255 256 256 256 255 255 254 254 253 253 253 253 253 252 252 252 251 251 251 251 250 250 250 250 250 250 249 249 249 248 248 248 247 247 247 247 246 246 246 246 247 246 246 247 247 247 247 246 247 247 247 247
256 255 255 256 256 255 254 254 253 253 253 252 252 252 252 252 251 251 251 250 250 250 250 250 250 249 249 249 249 248 248 248 248 247 247 247 247 246 246 246 246 246 246 247 247 247 247 246 246 247 247 248
256 256 255 255 255 255 255 255 254 253 252 252 252 251 251 251 251 251 250 250 250 249 249 249 249 249 249 249 249 249 248 248 248 248 247 247 247 247 246 246 246 246 246 247 247 247 247 247 246 246 247 247
256 256 255 255 254 254 254 254 254 254 253 252 252 252 251 250 250 250 250 249 249 249 249 249 249 249 248 248 249 248 248 248 248 248 248 247 247 247 247 246 246 246 246 246 246 246 247 247 247 247 247 247
257 256 256 255 254 254 253 253 253 253 253 253 252 252 251 251 250 250 249 249 248 248 248 248 248 248 248 248 248 248 248 248 247 248 248 247 247 246 246 246 246 246 246 246 247 246 246 246 246 247 247 247
257 257 256 256 255 254 254 253 252 252 252 252 252 252 251 251 251 250 249 249 248 248 247 247 247 247 247 247 247 247 247 247 247 247 247 247 247 247 246 246 246 246 247 247 247 247 246 246 246 246 246 246
257 257 256 256 255 255 255 254 254 253 252 252 251 251 251 251 250 250 250 249 249 248 247 247 247 246 246 246 247 247 247 246 246 246 246 247 247 247 246 246 246 246 246 246 246 247 247 246 246 245 245 246
258 257 257 256 256 255 255 254 254 253 253 253 252 252 251 251 250 250 249 249 249 249 248 247 247 247 246 246 246 246 246 246 246 246 245 246 246 246 246 246 246 246 246 246 246 246 246 246 246 245 245 245
258 258 258 257 257 256 255 255 254 253 253 253 252 252 251 251 251 250 250 249 248 248 248 248 247 247 247 246 246 246 246 246 245 245 245 245 245 245 245 245 246 246 246 246 245 245 246 246 246 246 245 245
259 259 258 258 258 257 256 256 255 254 253 253 252 252 251 251 251 250 250 250 249 248 248 247 247 246 246 246 246 246 246 246 246 245 245 244 244 244 245 245 245 245 246 246 246 245 246 246 246 246 246 245
260 259 259 259 259 258 257 257 256 255 254 254 253 252 251 251 250 250 249 249 249 249 248 247 247 246 246 246 246 246 247 247 246 246 245 244 244 244 244 244 244 245 245 245 245 245 245 246 246 246 246 246
260 260 260 259 259 259 258 258 257 256 255 255 254 253 252 251 250 250 249 248 248 248 249 248 247 246 246 245 245 245 245 246 247 247 246 245 245 244 244 244 244 244 245 245 245 245 245 245 246 246 246 246
260 260 259 259 259 259 259 258 258 257 256 256 255 254 253 252 251 250 249 249 248 247 247 248 247 247 246 245 245 245 244 244 245 246 247 246 246 245 244 244 244 245 245 245 245 245 245 245 245 245 245 246
260 260 259 258 258 258 258 259 258 258 258 257 256 255 255 254 253 251 250 249 249 248 247 246 247 247 246 246 245 245 245 244 244 245 246 246 246 246 244 243 244 245 245 245 245 245 245 245 245 245 245 246
261 260 260 259 258 258 258 258 258 258 258 258 257 257 256 255 255 254 253 251 250 249 248 247 246 246 246 246 246 245 245 245 244 244 244 245 246 246 245 244 243 243 245 245 245 245 245 245 245 245 245 245
262 262 261 260 259 259 258 257 257 257 257 257 257 257 257 256 256 255 254 253 252 251 250 248 247 246 246 246 245 245 245 245 245 245 244 244 244 245 246 245 244 243 244 245 245 245 245 245 245 245 245 245
264 264 264 263 262 261 260 259 258 257 257 256 256 257 257 256 256 255 255 254 253 253 252 250 249 248 247 246 245 245 245 245 245 245 245 244 244 244 245 245 245 244 243 244 245 245 245 245 245 245 244 244
267 267 267 266 265 264 263 262 261 259 258 257 256 256 256 255 255 255 255 254 254 253 253 252 251 249 248 247 246 245 244 244 244 244 245 244 244 244 244 244 245 245 244 243 243 244 245 245 245 245 245 245
271 270 269 268 267 266 264 263 262 261 259 257 256 255 254 254 254 254 254 254 253 253 252 252 252 251 250 248 247 246 245 244 243 243 244 244 244 244 244 244 244 244 244 244 243 243 244 244 245 245 245 245
272 271 270 268 267 266 265 264 262 261 259 257 256 255 254 253 252 252 252 253 253 252 251 251 251 251 251 250 248 247 246 245 244 243 243 243 243 244 244 244 243 243 244 244 244 243 243 244 244 244 244 244
271 270 269 268 268 267 266 265 264 262 260 258 257 255 253 253 252 251 250 250 251 252 251 250 249 250 250 250 249 248 247 245 245 244 243 243 243 243 243 243 243 243 243 243 244 244 244 244 244 243 243 243
272 271 270 269 268 267 266 265 264 263 262 260 258 256 254 253 252 251 250 249 249 250 251 249 248 248 248 249 249 249 248 246 245 245 244 243 242 242 242 243 242 242 242 242 243 244 244 244 244 243 243 243